| time (UTC) | temp F | wind direction | speed MPH | gust MPH | rain 1hr in | rain 24hr in | rain mn in | humidity % | barometer mb |
| 20260509124504 | 56 | 252 | 1.0 | 9.0 | 0.00 | 0.00 | 0.00 | 89 | 1007.0 |
| 20260509124004 | 55 | 0 | 0.0 | 0.0 | 0.00 | 0.00 | 0.00 | 89 | 1007.0 |
| 20260509123503 | 55 | 0 | 0.0 | 0.0 | 0.00 | 0.00 | 0.00 | 89 | 1007.1 |
| 20260509123003 | 55 | 0 | 0.0 | 0.0 | 0.00 | 0.00 | 0.00 | 89 | 1007.1 |
| 20260509122503 | 55 | 0 | 0.0 | 0.0 | 0.00 | 0.00 | 0.00 | 89 | 1007.0 |
| 20260509122004 | 55 | 0 | 0.0 | 0.0 | 0.00 | 0.00 | 0.00 | 89 | 1006.8 |
| 20260509121503 | 54 | 215 | 1.0 | 3.0 | 0.00 | 0.00 | 0.00 | 89 | 1006.8 |
| 20260509121003 | 54 | 214 | 1.0 | 8.0 | 0.00 | 0.00 | 0.00 | 89 | 1006.7 |
| 20260509120503 | 54 | 213 | 1.0 | 8.0 | 0.00 | 0.00 | 0.00 | 88 | 1006.7 |
| 20260509120005 | 54 | 217 | 1.0 | 3.0 | 0.00 | 0.00 | 0.00 | 88 | 1006.6 |
| 20260509115504 | 53 | 229 | 2.0 | 7.0 | 0.00 | 0.00 | 0.00 | 88 | 1006.5 |
| 20260509115004 | 53 | 229 | 2.0 | 7.0 | 0.00 | 0.00 | 0.00 | 88 | 1006.6 |
| 20260509114504 | 53 | 229 | 2.0 | 7.0 | 0.00 | 0.00 | 0.00 | 88 | 1006.5 |
| 20260509114003 | 53 | 229 | 2.0 | 7.0 | 0.00 | 0.00 | 0.00 | 88 | 1006.5 |
| 20260509113503 | 53 | 229 | 2.0 | 7.0 | 0.00 | 0.00 | 0.00 | 88 | 1006.6 |
| 20260509113004 | 53 | 229 | 2.0 | 7.0 | 0.00 | 0.00 | 0.00 | 88 | 1006.7 |
| 20260509112503 | 53 | 229 | 2.0 | 7.0 | 0.00 | 0.00 | 0.00 | 88 | 1006.7 |
| 20260509112003 | 53 | 229 | 2.0 | 7.0 | 0.00 | 0.00 | 0.00 | 88 | 1006.6 |
| 20260509111504 | 53 | 229 | 2.0 | 7.0 | 0.00 | 0.00 | 0.00 | 88 | 1006.6 |
| 20260509111003 | 54 | 229 | 2.0 | 7.0 | 0.00 | 0.00 | 0.00 | 88 | 1006.5 |
| 20260509110503 | 54 | 229 | 2.0 | 7.0 | 0.00 | 0.00 | 0.00 | 88 | 1006.5 |
| 20260509110004 | 54 | 229 | 2.0 | 7.0 | 0.00 | 0.00 | 0.00 | 88 | 1006.5 |
| 20260509105503 | 54 | 229 | 2.0 | 7.0 | 0.00 | 0.00 | 0.00 | 88 | 1006.4 |
| 20260509105003 | 54 | 229 | 2.0 | 7.0 | 0.00 | 0.00 | 0.00 | 88 | 1006.4 |
| 20260509104503 | 54 | 229 | 2.0 | 7.0 | 0.00 | 0.00 | 0.00 | 88 | 1006.4 |
| 20260509104004 | 54 | 229 | 2.0 | 7.0 | 0.00 | 0.00 | 0.00 | 88 | 1006.3 |
| 20260509103505 | 54 | 229 | 2.0 | 7.0 | 0.00 | 0.00 | 0.00 | 88 | 1006.3 |
| 20260509103003 | 54 | 229 | 2.0 | 7.0 | 0.00 | 0.00 | 0.00 | 88 | 1006.3 |
| 20260509102503 | 54 | 229 | 2.0 | 7.0 | 0.00 | 0.00 | 0.00 | 88 | 1006.3 |
| 20260509102003 | 54 | 229 | 2.0 | 7.0 | 0.00 | 0.00 | 0.00 | 88 | 1006.2 |
| 20260509101504 | 54 | 229 | 2.0 | 7.0 | 0.00 | 0.00 | 0.00 | 88 | 1006.3 |
| 20260509101004 | 54 | 229 | 2.0 | 7.0 | 0.00 | 0.00 | 0.00 | 88 | 1006.3 |
| 20260509100503 | 54 | 229 | 2.0 | 7.0 | 0.00 | 0.00 | 0.00 | 88 | 1006.3 |
| 20260509100006 | 54 | 229 | 2.0 | 7.0 | 0.00 | 0.00 | 0.00 | 88 | 1006.2 |
| 20260509095503 | 55 | 229 | 2.0 | 7.0 | 0.00 | 0.00 | 0.00 | 88 | 1006.3 |
| 20260509095004 | 55 | 229 | 2.0 | 7.0 | 0.00 | 0.00 | 0.00 | 88 | 1006.2 |
| 20260509094503 | 55 | 229 | 2.0 | 7.0 | 0.00 | 0.00 | 0.00 | 88 | 1006.3 |
| 20260509094003 | 55 | 229 | 2.0 | 7.0 | 0.00 | 0.00 | 0.00 | 88 | 1006.2 |
| 20260509093504 | 55 | 229 | 2.0 | 7.0 | 0.00 | 0.00 | 0.00 | 88 | 1006.2 |
| 20260509093005 | 55 | 229 | 2.0 | 7.0 | 0.00 | 0.00 | 0.00 | 88 | 1006.3 |
| 20260509092503 | 55 | 229 | 2.0 | 7.0 | 0.00 | 0.00 | 0.00 | 88 | 1006.4 |
| 20260509092003 | 55 | 229 | 2.0 | 7.0 | 0.00 | 0.00 | 0.00 | 88 | 1006.4 |
| 20260509091505 | 55 | 229 | 2.0 | 7.0 | 0.00 | 0.00 | 0.00 | 88 | 1006.4 |
| 20260509091004 | 55 | 229 | 2.0 | 7.0 | 0.00 | 0.00 | 0.00 | 88 | 1006.4 |
| 20260509090503 | 56 | 229 | 2.0 | 7.0 | 0.00 | 0.00 | 0.00 | 88 | 1006.4 |
| 20260509090003 | 56 | 229 | 2.0 | 7.0 | 0.00 | 0.00 | 0.00 | 88 | 1006.5 |
| 20260509085503 | 56 | 229 | 2.0 | 7.0 | 0.00 | 0.00 | 0.00 | 88 | 1006.4 |
| 20260509085004 | 56 | 229 | 2.0 | 7.0 | 0.00 | 0.00 | 0.00 | 88 | 1006.4 |
| 20260509084504 | 56 | 229 | 2.0 | 7.0 | 0.00 | 0.00 | 0.00 | 88 | 1006.5 |
| 20260509084003 | 56 | 229 | 2.0 | 7.0 | 0.00 | 0.00 | 0.00 | 88 | 1006.5 |
| 20260509083503 | 56 | 229 | 2.0 | 7.0 | 0.00 | 0.00 | 0.00 | 88 | 1006.5 |
| 20260509083003 | 56 | 229 | 2.0 | 7.0 | 0.00 | 0.00 | 0.00 | 88 | 1006.6 |
| 20260509082505 | 56 | 229 | 2.0 | 7.0 | 0.00 | 0.00 | 0.00 | 88 | 1006.5 |
| 20260509082004 | 56 | 229 | 2.0 | 7.0 | 0.00 | 0.00 | 0.00 | 88 | 1006.5 |
| 20260509081504 | 56 | 229 | 2.0 | 7.0 | 0.00 | 0.00 | 0.00 | 88 | 1006.6 |
| 20260509081005 | 56 | 229 | 2.0 | 7.0 | 0.00 | 0.00 | 0.00 | 88 | 1006.6 |
| 20260509080503 | 56 | 229 | 2.0 | 7.0 | 0.00 | 0.00 | 0.00 | 88 | 1006.6 |
| 20260509080003 | 56 | 229 | 2.0 | 7.0 | 0.00 | 0.00 | 0.00 | 88 | 1006.6 |
| 20260509075504 | 56 | 229 | 2.0 | 7.0 | 0.00 | 0.00 | 0.00 | 88 | 1006.6 |
| 20260509075004 | 56 | 229 | 2.0 | 7.0 | 0.00 | 0.00 | 0.00 | 88 | 1006.6 |
| 20260509074504 | 56 | 229 | 2.0 | 7.0 | 0.00 | 0.00 | 0.00 | 88 | 1006.6 |
| 20260509074004 | 56 | 229 | 2.0 | 7.0 | 0.00 | 0.00 | 0.00 | 88 | 1006.6 |
| 20260509073503 | 56 | 229 | 2.0 | 7.0 | 0.00 | 0.00 | 0.00 | 88 | 1006.6 |
| 20260509073004 | 56 | 229 | 2.0 | 7.0 | 0.00 | 0.00 | 0.00 | 88 | 1006.6 |
| 20260509072504 | 56 | 229 | 2.0 | 7.0 | 0.00 | 0.00 | 0.00 | 88 | 1006.6 |
| 20260509072004 | 56 | 229 | 2.0 | 7.0 | 0.00 | 0.00 | 0.00 | 88 | 1006.7 |
| 20260509071504 | 56 | 229 | 2.0 | 7.0 | 0.00 | 0.00 | 0.00 | 88 | 1006.7 |
| 20260509071004 | 56 | 229 | 2.0 | 7.0 | 0.00 | 0.00 | 0.00 | 88 | 1006.8 |
| 20260509070503 | 56 | 229 | 2.0 | 7.0 | 0.00 | 0.00 | 0.00 | 88 | 1006.8 |
| 20260509070005 | 56 | 229 | 2.0 | 7.0 | 0.00 | 0.00 | 0.00 | 88 | 1006.9 |
| 20260509065504 | 56 | 229 | 2.0 | 7.0 | 0.00 | 0.00 | 0.00 | 88 | 1007.1 |
| 20260509065004 | 56 | 229 | 2.0 | 7.0 | 0.00 | 0.00 | 0.00 | 88 | 1007.2 |
| 20260509064503 | 56 | 229 | 2.0 | 7.0 | 0.00 | 0.00 | 0.00 | 88 | 1007.2 |
| 20260509064003 | 56 | 229 | 2.0 | 7.0 | 0.00 | 0.00 | 0.00 | 88 | 1007.4 |
| 20260509063503 | 56 | 229 | 2.0 | 7.0 | 0.00 | 0.00 | 0.00 | 88 | 1007.4 |
| 20260509063004 | 56 | 229 | 2.0 | 7.0 | 0.00 | 0.00 | 0.00 | 88 | 1007.4 |
| 20260509062504 | 56 | 229 | 2.0 | 7.0 | 0.00 | 0.00 | 0.00 | 88 | 1007.5 |
| 20260509062003 | 56 | 229 | 2.0 | 7.0 | 0.00 | 0.00 | 0.00 | 88 | 1007.5 |
| 20260509061504 | 56 | 229 | 2.0 | 7.0 | 0.00 | 0.00 | 0.00 | 88 | 1007.7 |
| 20260509061003 | 56 | 229 | 2.0 | 7.0 | 0.00 | 0.00 | 0.00 | 88 | 1007.8 |
| 20260509060503 | 56 | 229 | 2.0 | 7.0 | 0.00 | 0.00 | 0.00 | 88 | 1007.8 |
| 20260509060004 | 56 | 229 | 2.0 | 7.0 | 0.00 | 0.00 | 0.00 | 88 | 1007.9 |
| 20260509055504 | 56 | 229 | 2.0 | 7.0 | 0.00 | 0.00 | 0.00 | 88 | 1008.0 |
| 20260509055003 | 56 | 229 | 2.0 | 7.0 | 0.00 | 0.00 | 0.00 | 88 | 1008.0 |
| 20260509054503 | 56 | 229 | 2.0 | 7.0 | 0.00 | 0.00 | 0.00 | 88 | 1008.0 |
| 20260509054003 | 56 | 229 | 2.0 | 7.0 | 0.00 | 0.00 | 0.00 | 88 | 1008.0 |
| 20260509053504 | 56 | 229 | 2.0 | 7.0 | 0.00 | 0.00 | 0.00 | 87 | 1008.0 |
| 20260509053005 | 56 | 229 | 2.0 | 7.0 | 0.00 | 0.00 | 0.00 | 88 | 1008.2 |
| 20260509052503 | 56 | 229 | 2.0 | 7.0 | 0.00 | 0.00 | 0.00 | 87 | 1008.1 |
| 20260509052004 | 56 | 229 | 2.0 | 7.0 | 0.00 | 0.00 | 0.00 | 87 | 1008.2 |
| 20260509051503 | 56 | 229 | 2.0 | 7.0 | 0.00 | 0.00 | 0.00 | 87 | 1008.3 |
| 20260509051004 | 56 | 229 | 2.0 | 7.0 | 0.00 | 0.00 | 0.00 | 87 | 1008.2 |
| 20260509050505 | 56 | 229 | 2.0 | 7.0 | 0.00 | 0.00 | 0.00 | 87 | 1008.2 |
| 20260509050003 | 56 | 229 | 2.0 | 7.0 | 0.00 | 0.00 | 0.00 | 87 | 1008.1 |
| 20260509045504 | 56 | 229 | 2.0 | 7.0 | 0.00 | 0.00 | 0.00 | 87 | 1008.1 |
| 20260509045003 | 56 | 229 | 2.0 | 7.0 | 0.00 | 0.00 | 0.00 | 87 | 1008.1 |
| 20260509044503 | 56 | 228 | 2.0 | 7.0 | 0.00 | 0.00 | 0.00 | 87 | 1008.0 |
| 20260509044003 | 56 | 223 | 3.0 | 9.0 | 0.00 | 0.00 | 0.00 | 87 | 1008.2 |
| 20260509043504 | 56 | 224 | 3.0 | 9.0 | 0.00 | 0.00 | 0.00 | 87 | 1008.1 |
| 20260509043004 | 56 | 226 | 3.0 | 8.0 | 0.00 | 0.00 | 0.00 | 87 | 1008.1 |
| 20260509042503 | 56 | 221 | 4.0 | 9.0 | 0.00 | 0.00 | 0.00 | 87 | 1008.1 |
| 20260509042004 | 56 | 222 | 4.0 | 10.0 | 0.00 | 0.00 | 0.00 | 87 | 1008.0 |
| 20260509041503 | 56 | 212 | 4.0 | 10.0 | 0.00 | 0.00 | 0.00 | 87 | 1008.0 |
| 20260509041003 | 56 | 202 | 5.0 | 13.0 | 0.00 | 0.00 | 0.00 | 87 | 1008.1 |
| 20260509040504 | 56 | 211 | 5.0 | 13.0 | 0.00 | 0.00 | 0.00 | 87 | 1008.1 |
| 20260509040005 | 56 | 213 | 5.0 | 10.0 | 0.00 | 0.00 | 0.00 | 87 | 1008.1 |
| 20260509035503 | 56 | 207 | 5.0 | 10.0 | 0.00 | 0.00 | 0.00 | 87 | 1008.0 |
| 20260509035004 | 56 | 211 | 5.0 | 10.0 | 0.00 | 0.00 | 0.00 | 87 | 1008.1 |
| 20260509034503 | 56 | 210 | 4.0 | 9.0 | 0.00 | 0.00 | 0.00 | 87 | 1008.1 |
| 20260509034004 | 56 | 210 | 4.0 | 10.0 | 0.00 | 0.00 | 0.00 | 87 | 1008.0 |
| 20260509033504 | 56 | 216 | 4.0 | 10.0 | 0.00 | 0.00 | 0.00 | 87 | 1008.1 |
| 20260509033003 | 56 | 222 | 3.0 | 8.0 | 0.00 | 0.00 | 0.00 | 87 | 1008.1 |
| 20260509032504 | 56 | 219 | 3.0 | 8.0 | 0.00 | 0.00 | 0.00 | 87 | 1008.1 |
| 20260509032004 | 56 | 210 | 4.0 | 10.0 | 0.00 | 0.00 | 0.00 | 87 | 1008.0 |
| 20260509031503 | 56 | 209 | 4.0 | 10.0 | 0.00 | 0.00 | 0.00 | 87 | 1008.0 |
| 20260509031004 | 56 | 204 | 3.0 | 9.0 | 0.00 | 0.00 | 0.00 | 87 | 1008.1 |
| 20260509030503 | 56 | 203 | 2.0 | 8.0 | 0.00 | 0.00 | 0.00 | 87 | 1008.0 |
| 20260509030003 | 56 | 212 | 2.0 | 8.0 | 0.00 | 0.00 | 0.00 | 87 | 1008.1 |
| 20260509025504 | 56 | 215 | 2.0 | 8.0 | 0.00 | 0.00 | 0.00 | 87 | 1008.1 |
| 20260509025005 | 56 | 216 | 2.0 | 8.0 | 0.00 | 0.00 | 0.00 | 87 | 1008.4 |
| 20260509024503 | 56 | 219 | 2.0 | 6.0 | 0.00 | 0.00 | 0.00 | 87 | 1008.3 |
| 20260509024004 | 56 | 221 | 2.0 | 7.0 | 0.00 | 0.00 | 0.00 | 87 | 1008.4 |
| 20260509023504 | 56 | 226 | 4.0 | 9.0 | 0.00 | 0.00 | 0.00 | 87 | 1008.3 |
| 20260509023005 | 56 | 229 | 3.0 | 9.0 | 0.00 | 0.00 | 0.00 | 86 | 1008.4 |
| 20260509022505 | 56 | 226 | 3.0 | 10.0 | 0.00 | 0.00 | 0.00 | 86 | 1008.4 |
| 20260509022003 | 56 | 221 | 4.0 | 13.0 | 0.00 | 0.00 | 0.00 | 86 | 1008.5 |
| 20260509021504 | 56 | 230 | 5.0 | 15.0 | 0.00 | 0.00 | 0.00 | 86 | 1008.5 |
| 20260509021003 | 56 | 243 | 6.0 | 15.0 | 0.00 | 0.00 | 0.00 | 86 | 1008.5 |
| 20260509020505 | 56 | 248 | 6.0 | 13.0 | 0.00 | 0.00 | 0.00 | 86 | 1008.3 |
| 20260509020003 | 56 | 249 | 7.0 | 14.0 | 0.00 | 0.00 | 0.00 | 86 | 1008.3 |
| 20260509015505 | 56 | 252 | 8.0 | 16.0 | 0.00 | 0.00 | 0.00 | 86 | 1008.1 |
| 20260509015004 | 56 | 256 | 6.0 | 16.0 | 0.00 | 0.00 | 0.00 | 86 | 1008.1 |
| 20260509014503 | 57 | 251 | 5.0 | 15.0 | 0.00 | 0.00 | 0.00 | 86 | 1008.1 |
| 20260509014003 | 57 | 236 | 4.0 | 11.0 | 0.00 | 0.00 | 0.00 | 86 | 1008.1 |
| 20260509013504 | 57 | 229 | 4.0 | 11.0 | 0.00 | 0.00 | 0.00 | 86 | 1008.2 |
| 20260509013004 | 57 | 226 | 3.0 | 10.0 | 0.00 | 0.00 | 0.00 | 86 | 1008.2 |
| 20260509012504 | 57 | 233 | 3.0 | 10.0 | 0.00 | 0.00 | 0.00 | 86 | 1008.1 |
| 20260509012003 | 57 | 236 | 3.0 | 9.0 | 0.00 | 0.00 | 0.00 | 86 | 1008.2 |
| 20260509011504 | 57 | 244 | 3.0 | 9.0 | 0.00 | 0.00 | 0.00 | 86 | 1008.2 |
| 20260509011004 | 57 | 254 | 3.0 | 9.0 | 0.00 | 0.00 | 0.00 | 86 | 1008.1 |
| 20260509010503 | 57 | 253 | 3.0 | 10.0 | 0.00 | 0.00 | 0.00 | 86 | 1008.2 |
| 20260509010004 | 57 | 255 | 4.0 | 10.0 | 0.00 | 0.00 | 0.00 | 86 | 1008.3 |
| 20260509005503 | 57 | 259 | 3.0 | 9.0 | 0.00 | 0.00 | 0.00 | 86 | 1008.3 |
| 20260509005003 | 57 | 246 | 2.0 | 5.0 | 0.00 | 0.00 | 0.00 | 85 | 1008.4 |
| 20260509004503 | 57 | 229 | 2.0 | 5.0 | 0.00 | 0.00 | 0.00 | 85 | 1008.4 |
| 20260509004004 | 57 | 221 | 3.0 | 6.0 | 0.00 | 0.00 | 0.00 | 85 | 1008.3 |
| 20260509003504 | 57 | 216 | 3.0 | 9.0 | 0.00 | 0.00 | 0.00 | 85 | 1008.2 |
| 20260509003003 | 57 | 223 | 3.0 | 9.0 | 0.00 | 0.00 | 0.00 | 85 | 1008.1 |
| 20260509002503 | 57 | 238 | 2.0 | 9.0 | 0.00 | 0.00 | 0.00 | 85 | 1008.1 |
| 20260509002003 | 57 | 239 | 2.0 | 6.0 | 0.00 | 0.00 | 0.00 | 85 | 1008.2 |
| 20260509001504 | 57 | 239 | 1.0 | 6.0 | 0.00 | 0.00 | 0.00 | 85 | 1008.3 |
| 20260509001004 | 57 | 238 | 2.0 | 6.0 | 0.00 | 0.00 | 0.00 | 85 | 1008.3 |
| 20260509000503 | 57 | 250 | 2.0 | 7.0 | 0.00 | 0.00 | 0.00 | 85 | 1008.4 |
| 20260509000004 | 57 | 256 | 2.0 | 8.0 | 0.00 | 0.00 | 0.00 | 85 | 1008.6 |
| 20260508235503 | 57 | 258 | 2.0 | 8.0 | 0.00 | 0.00 | 0.00 | 84 | 1008.7 |
| 20260508235003 | 57 | 251 | 3.0 | 8.0 | 0.00 | 0.00 | 0.00 | 84 | 1008.7 |
| 20260508234504 | 57 | 252 | 3.0 | 8.0 | 0.00 | 0.00 | 0.00 | 84 | 1008.6 |
| 20260508234004 | 57 | 257 | 3.0 | 8.0 | 0.00 | 0.00 | 0.00 | 84 | 1008.7 |
| 20260508233504 | 57 | 246 | 3.0 | 8.0 | 0.00 | 0.00 | 0.00 | 84 | 1008.7 |
| 20260508233003 | 57 | 236 | 3.0 | 7.0 | 0.00 | 0.00 | 0.00 | 84 | 1008.6 |
| 20260508232504 | 57 | 235 | 2.0 | 6.0 | 0.00 | 0.00 | 0.00 | 83 | 1008.5 |
| 20260508232004 | 57 | 236 | 2.0 | 7.0 | 0.00 | 0.00 | 0.00 | 83 | 1008.5 |
| 20260508231504 | 57 | 239 | 2.0 | 7.0 | 0.00 | 0.00 | 0.00 | 83 | 1008.5 |
| 20260508231004 | 57 | 244 | 2.0 | 6.0 | 0.00 | 0.00 | 0.00 | 83 | 1008.5 |
| 20260508230503 | 57 | 245 | 3.0 | 6.0 | 0.00 | 0.00 | 0.00 | 82 | 1008.6 |
| 20260508230004 | 58 | 247 | 2.0 | 8.0 | 0.00 | 0.00 | 0.00 | 82 | 1008.8 |
| 20260508225504 | 58 | 284 | 2.0 | 8.0 | 0.00 | 0.00 | 0.00 | 82 | 1009.0 |
| 20260508225004 | 58 | 336 | 1.0 | 4.0 | 0.00 | 0.00 | 0.00 | 82 | 1009.1 |
| 20260508224504 | 58 | 336 | 1.0 | 2.0 | 0.00 | 0.00 | 0.00 | 81 | 1008.8 |
| 20260508224003 | 58 | 336 | 0.0 | 2.0 | 0.00 | 0.00 | 0.00 | 81 | 1008.7 |
| 20260508223504 | 58 | 337 | 0.0 | 1.0 | 0.00 | 0.00 | 0.00 | 81 | 1008.7 |
| 20260508223004 | 58 | 337 | 0.0 | 1.0 | 0.00 | 0.00 | 0.00 | 81 | 1008.8 |
| 20260508222503 | 58 | 337 | 0.0 | 1.0 | 0.00 | 0.00 | 0.00 | 81 | 1008.9 |
| 20260508222003 | 58 | 336 | 0.0 | 2.0 | 0.00 | 0.00 | 0.00 | 80 | 1008.8 |
| 20260508221505 | 58 | 336 | 0.0 | 2.0 | 0.00 | 0.00 | 0.00 | 80 | 1008.9 |
| 20260508221004 | 58 | 336 | 1.0 | 4.0 | 0.00 | 0.00 | 0.00 | 80 | 1008.9 |
| 20260508220503 | 58 | 337 | 2.0 | 5.0 | 0.00 | 0.00 | 0.00 | 80 | 1008.9 |
| 20260508220004 | 58 | 337 | 2.0 | 5.0 | 0.00 | 0.00 | 0.00 | 79 | 1009.1 |
| 20260508215503 | 59 | 339 | 1.0 | 6.0 | 0.00 | 0.00 | 0.00 | 79 | 1009.0 |
| 20260508215004 | 59 | 318 | 3.0 | 9.0 | 0.00 | 0.00 | 0.00 | 78 | 1009.0 |
| 20260508214504 | 59 | 317 | 4.0 | 11.0 | 0.00 | 0.00 | 0.00 | 78 | 1009.1 |
| 20260508214004 | 59 | 318 | 5.0 | 11.0 | 0.00 | 0.00 | 0.00 | 76 | 1009.2 |
| 20260508213505 | 60 | 316 | 4.0 | 11.0 | 0.00 | 0.00 | 0.00 | 76 | 1009.1 |
| 20260508213005 | 60 | 314 | 2.0 | 10.0 | 0.00 | 0.00 | 0.00 | 74 | 1008.9 |
| 20260508212503 | 61 | 308 | 1.0 | 8.0 | 0.00 | 0.00 | 0.00 | 73 | 1008.8 |
| 20260508212004 | 61 | 311 | 2.0 | 8.0 | 0.00 | 0.00 | 0.00 | 72 | 1008.7 |
| 20260508211505 | 62 | 319 | 3.0 | 12.0 | 0.00 | 0.00 | 0.00 | 71 | 1008.7 |
| 20260508211003 | 63 | 320 | 5.0 | 12.0 | 0.00 | 0.00 | 0.00 | 69 | 1008.7 |
| 20260508210503 | 63 | 310 | 5.0 | 20.0 | 0.00 | 0.00 | 0.00 | 67 | 1008.7 |
| 20260508210003 | 64 | 293 | 4.0 | 20.0 | 0.00 | 0.00 | 0.00 | 65 | 1008.8 |
| 20260508205505 | 65 | 272 | 3.0 | 8.0 | 0.00 | 0.00 | 0.00 | 63 | 1008.6 |
| 20260508205003 | 65 | 264 | 3.0 | 8.0 | 0.00 | 0.00 | 0.00 | 61 | 1008.5 |
| 20260508204503 | 65 | 254 | 3.0 | 10.0 | 0.00 | 0.00 | 0.00 | 56 | 1008.3 |
| 20260508204005 | 66 | 251 | 3.0 | 10.0 | 0.00 | 0.00 | 0.00 | 55 | 1008.3 |
| 20260508203504 | 66 | 248 | 3.0 | 9.0 | 0.00 | 0.00 | 0.00 | 55 | 1008.3 |
| 20260508203004 | 66 | 244 | 3.0 | 10.0 | 0.00 | 0.00 | 0.00 | 52 | 1008.2 |
| 20260508202504 | 66 | 248 | 2.0 | 10.0 | 0.00 | 0.00 | 0.00 | 55 | 1008.4 |
| 20260508202003 | 66 | 251 | 3.0 | 11.0 | 0.00 | 0.00 | 0.00 | 50 | 1008.4 |
| 20260508201503 | 66 | 249 | 4.0 | 11.0 | 0.00 | 0.00 | 0.00 | 49 | 1008.4 |
| 20260508201003 | 66 | 245 | 4.0 | 15.0 | 0.00 | 0.00 | 0.00 | 49 | 1008.5 |
| 20260508200504 | 66 | 242 | 4.0 | 15.0 | 0.00 | 0.00 | 0.00 | 49 | 1008.5 |
| 20260508200004 | 66 | 252 | 4.0 | 12.0 | 0.00 | 0.00 | 0.00 | 50 | 1008.6 |
| 20260508195504 | 66 | 255 | 3.0 | 8.0 | 0.00 | 0.00 | 0.00 | 53 | 1008.6 |
| 20260508195003 | 66 | 229 | 3.0 | 7.0 | 0.00 | 0.00 | 0.00 | 52 | 1008.7 |
| 20260508194504 | 66 | 235 | 4.0 | 9.0 | 0.00 | 0.00 | 0.00 | 52 | 1008.7 |
| 20260508194004 | 66 | 237 | 3.0 | 9.0 | 0.00 | 0.00 | 0.00 | 54 | 1008.8 |
| 20260508193504 | 66 | 231 | 4.0 | 11.0 | 0.00 | 0.00 | 0.00 | 53 | 1008.8 |
| 20260508193004 | 66 | 231 | 4.0 | 11.0 | 0.00 | 0.00 | 0.00 | 53 | 1008.9 |
| 20260508192503 | 66 | 228 | 4.0 | 11.0 | 0.00 | 0.00 | 0.00 | 53 | 1009.0 |
| 20260508192003 | 65 | 222 | 4.0 | 11.0 | 0.00 | 0.00 | 0.00 | 54 | 1009.2 |
| 20260508191504 | 65 | 218 | 4.0 | 12.0 | 0.00 | 0.00 | 0.00 | 52 | 1009.3 |
| 20260508191003 | 65 | 223 | 5.0 | 12.0 | 0.00 | 0.00 | 0.00 | 54 | 1009.3 |
| 20260508190503 | 65 | 223 | 5.0 | 13.0 | 0.00 | 0.00 | 0.00 | 52 | 1009.3 |
| 20260508190004 | 65 | 231 | 4.0 | 13.0 | 0.00 | 0.00 | 0.00 | 54 | 1009.5 |
| 20260508185505 | 65 | 235 | 4.0 | 10.0 | 0.00 | 0.00 | 0.00 | 53 | 1009.6 |
| 20260508185004 | 64 | 230 | 4.0 | 9.0 | 0.00 | 0.00 | 0.00 | 54 | 1009.8 |
| 20260508184504 | 64 | 243 | 5.0 | 15.0 | 0.00 | 0.00 | 0.00 | 54 | 1009.9 |
| 20260508184003 | 64 | 249 | 7.0 | 15.0 | 0.00 | 0.00 | 0.00 | 53 | 1010.0 |
| 20260508183503 | 64 | 249 | 7.0 | 18.0 | 0.00 | 0.00 | 0.00 | 52 | 1010.1 |
| 20260508183004 | 64 | 253 | 6.0 | 18.0 | 0.00 | 0.00 | 0.00 | 52 | 1010.1 |
| 20260508182504 | 64 | 253 | 4.0 | 12.0 | 0.00 | 0.00 | 0.00 | 53 | 1010.1 |
| 20260508182004 | 64 | 231 | 4.0 | 14.0 | 0.00 | 0.00 | 0.00 | 53 | 1010.1 |
| 20260508181503 | 64 | 228 | 5.0 | 16.0 | 0.00 | 0.00 | 0.00 | 52 | 1010.1 |
| 20260508181003 | 64 | 235 | 6.0 | 16.0 | 0.00 | 0.00 | 0.00 | 51 | 1010.2 |
| 20260508180505 | 64 | 237 | 7.0 | 16.0 | 0.00 | 0.00 | 0.00 | 52 | 1010.2 |
| 20260508180004 | 64 | 240 | 8.0 | 15.0 | 0.00 | 0.00 | 0.00 | 50 | 1010.2 |
| 20260508175504 | 65 | 236 | 7.0 | 15.0 | 0.00 | 0.00 | 0.00 | 51 | 1010.2 |
| 20260508175003 | 65 | 234 | 5.0 | 15.0 | 0.00 | 0.00 | 0.00 | 51 | 1010.3 |
| 20260508174503 | 65 | 242 | 6.0 | 14.0 | 0.00 | 0.00 | 0.00 | 50 | 1010.3 |
| 20260508174003 | 65 | 244 | 6.0 | 17.0 | 0.00 | 0.00 | 0.00 | 49 | 1010.4 |
| 20260508173503 | 66 | 237 | 6.0 | 17.0 | 0.00 | 0.00 | 0.00 | 47 | 1010.5 |
| 20260508173004 | 67 | 245 | 7.0 | 16.0 | 0.00 | 0.00 | 0.00 | 46 | 1010.6 |
| 20260508172504 | 67 | 236 | 7.0 | 16.0 | 0.00 | 0.00 | 0.00 | 45 | 1010.6 |
| 20260508172003 | 68 | 217 | 7.0 | 16.0 | 0.00 | 0.00 | 0.00 | 46 | 1010.7 |
| 20260508171503 | 68 | 220 | 8.0 | 18.0 | 0.00 | 0.00 | 0.00 | 45 | 1010.6 |
| 20260508171005 | 69 | 222 | 8.0 | 18.0 | 0.00 | 0.00 | 0.00 | 45 | 1010.6 |
| 20260508170504 | 69 | 216 | 7.0 | 16.0 | 0.00 | 0.00 | 0.00 | 45 | 1010.7 |
| 20260508170003 | 69 | 209 | 7.0 | 16.0 | 0.00 | 0.00 | 0.00 | 49 | 1010.7 |
| 20260508165504 | 68 | 215 | 6.0 | 15.0 | 0.00 | 0.00 | 0.00 | 48 | 1010.8 |
| 20260508165004 | 68 | 229 | 7.0 | 18.0 | 0.00 | 0.00 | 0.00 | 51 | 1010.9 |
| 20260508164504 | 67 | 230 | 8.0 | 18.0 | 0.00 | 0.00 | 0.00 | 50 | 1010.9 |
| 20260508164004 | 66 | 227 | 7.0 | 15.0 | 0.00 | 0.00 | 0.00 | 49 | 1011.0 |
| 20260508163503 | 66 | 222 | 7.0 | 16.0 | 0.00 | 0.00 | 0.00 | 47 | 1011.2 |
| 20260508163003 | 66 | 229 | 6.0 | 16.0 | 0.00 | 0.00 | 0.00 | 48 | 1011.2 |
| 20260508162503 | 66 | 246 | 9.0 | 17.0 | 0.00 | 0.00 | 0.00 | 47 | 1011.3 |
| 20260508162003 | 66 | 253 | 9.0 | 17.0 | 0.00 | 0.00 | 0.00 | 45 | 1011.4 |
| 20260508161504 | 66 | 254 | 9.0 | 22.0 | 0.00 | 0.00 | 0.00 | 47 | 1011.5 |
| 20260508161003 | 66 | 252 | 10.0 | 22.0 | 0.00 | 0.00 | 0.00 | 47 | 1011.4 |
| 20260508160503 | 66 | 245 | 10.0 | 20.0 | 0.00 | 0.00 | 0.00 | 46 | 1011.5 |
| 20260508160003 | 66 | 238 | 9.0 | 20.0 | 0.00 | 0.00 | 0.00 | 49 | 1011.5 |
| 20260508155504 | 65 | 242 | 10.0 | 19.0 | 0.00 | 0.00 | 0.00 | 48 | 1011.6 |
| 20260508155004 | 65 | 243 | 9.0 | 19.0 | 0.00 | 0.00 | 0.00 | 47 | 1011.6 |
| 20260508154503 | 65 | 246 | 8.0 | 23.0 | 0.00 | 0.00 | 0.00 | 48 | 1011.6 |
| 20260508154003 | 65 | 247 | 10.0 | 23.0 | 0.00 | 0.00 | 0.00 | 48 | 1011.5 |
| 20260508153503 | 65 | 247 | 9.0 | 19.0 | 0.00 | 0.00 | 0.00 | 49 | 1011.5 |
| 20260508153004 | 65 | 238 | 8.0 | 17.0 | 0.00 | 0.00 | 0.00 | 49 | 1011.6 |
| 20260508152504 | 64 | 231 | 7.0 | 15.0 | 0.00 | 0.00 | 0.00 | 48 | 1011.7 |
| 20260508152004 | 64 | 238 | 5.0 | 15.0 | 0.00 | 0.00 | 0.00 | 48 | 1011.7 |
| 20260508151503 | 65 | 246 | 6.0 | 20.0 | 0.00 | 0.00 | 0.00 | 49 | 1011.7 |
| 20260508151003 | 65 | 253 | 8.0 | 20.0 | 0.00 | 0.00 | 0.00 | 48 | 1011.7 |
| 20260508150503 | 65 | 257 | 8.0 | 20.0 | 0.00 | 0.00 | 0.00 | 49 | 1011.7 |
| 20260508150004 | 65 | 256 | 8.0 | 20.0 | 0.00 | 0.00 | 0.00 | 47 | 1011.7 |
| 20260508145503 | 65 | 253 | 7.0 | 16.0 | 0.00 | 0.00 | 0.00 | 48 | 1011.7 |
| 20260508145003 | 64 | 248 | 7.0 | 17.0 | 0.00 | 0.00 | 0.00 | 51 | 1011.8 |
| 20260508144505 | 64 | 249 | 8.0 | 17.0 | 0.00 | 0.00 | 0.00 | 51 | 1011.8 |
| 20260508144003 | 63 | 256 | 9.0 | 18.0 | 0.00 | 0.00 | 0.00 | 50 | 1011.9 |
| 20260508143503 | 63 | 257 | 11.0 | 21.0 | 0.00 | 0.00 | 0.00 | 50 | 1012.0 |
| 20260508143004 | 63 | 255 | 10.0 | 21.0 | 0.00 | 0.00 | 0.00 | 50 | 1012.1 |
| 20260508142504 | 62 | 261 | 7.0 | 18.0 | 0.00 | 0.00 | 0.00 | 51 | 1012.2 |
| 20260508142005 | 62 | 264 | 7.0 | 16.0 | 0.00 | 0.00 | 0.00 | 52 | 1012.2 |
| 20260508141503 | 62 | 264 | 6.0 | 16.0 | 0.00 | 0.00 | 0.00 | 53 | 1012.2 |
| 20260508141004 | 61 | 250 | 4.0 | 13.0 | 0.00 | 0.00 | 0.00 | 55 | 1012.3 |
| 20260508140503 | 60 | 239 | 6.0 | 13.0 | 0.00 | 0.00 | 0.00 | 54 | 1012.3 |
| 20260508140004 | 60 | 261 | 6.0 | 14.0 | 0.00 | 0.00 | 0.00 | 54 | 1012.3 |
| 20260508135505 | 60 | 266 | 5.0 | 14.0 | 0.00 | 0.00 | 0.00 | 55 | 1012.4 |
| 20260508135005 | 59 | 251 | 7.0 | 16.0 | 0.00 | 0.00 | 0.00 | 54 | 1012.5 |
| 20260508134503 | 59 | 250 | 7.0 | 16.0 | 0.00 | 0.00 | 0.00 | 53 | 1012.4 |
| 20260508134003 | 58 | 256 | 6.0 | 13.0 | 0.00 | 0.00 | 0.00 | 55 | 1012.4 |
| 20260508133504 | 58 | 251 | 6.0 | 15.0 | 0.00 | 0.00 | 0.00 | 56 | 1012.5 |
| 20260508133003 | 58 | 256 | 7.0 | 15.0 | 0.00 | 0.00 | 0.00 | 56 | 1012.5 |
| 20260508132504 | 57 | 264 | 7.0 | 17.0 | 0.00 | 0.00 | 0.00 | 56 | 1012.6 |
| 20260508132004 | 57 | 263 | 5.0 | 17.0 | 0.00 | 0.00 | 0.00 | 57 | 1012.6 |
| 20260508131503 | 56 | 265 | 5.0 | 12.0 | 0.00 | 0.00 | 0.00 | 58 | 1012.7 |
| 20260508131004 | 56 | 258 | 5.0 | 13.0 | 0.00 | 0.00 | 0.00 | 58 | 1012.7 |
| 20260508130504 | 56 | 251 | 6.0 | 16.0 | 0.00 | 0.00 | 0.00 | 58 | 1012.6 |
| 20260508130005 | 55 | 259 | 5.0 | 16.0 | 0.00 | 0.00 | 0.00 | 58 | 1012.6 |
| 20260508125504 | 55 | 262 | 4.0 | 11.0 | 0.00 | 0.00 | 0.00 | 60 | 1012.6 |
| 20260508125004 | 54 | 252 | 4.0 | 11.0 | 0.00 | 0.00 | 0.00 | 61 | 1012.6 |